Total_Precipitation_Accumulation
1.73 1.75 1.75 1.67 1.68 1.69 1.77 1.82 1.85 1.66 1.41 1.19 1.03 0.93 1.01 1.04 1.26 1.18 1.00 1.01 0.93 0.82 0.74 0.69 0.79 0.94 1.15 1.25 1.35 1.46 1.55 1.57 1.49 1.37 1.38 1.40 1.43 1.55
1.49 1.54 1.59 1.60 1.66 1.66 1.73 1.80 1.77 1.70 1.54 1.31 1.15 1.08 1.12 1.01 1.13 1.03 1.08 1.22 1.03 0.88 0.80 0.75 0.75 0.85 0.93 0.95 0.94 0.88 0.88 0.92 0.94 0.98 1.00 1.06 1.16 1.31
1.17 1.20 1.27 1.31 1.41 1.47 1.58 1.65 1.68 1.65 1.43 1.28 1.16 1.17 1.18 1.17 1.15 1.07 1.12 1.15 1.03 0.93 0.80 0.71 0.72 0.78 0.87 0.91 0.89 0.82 0.73 0.69 0.72 0.78 0.84 0.86 0.85 0.88
0.94 0.99 1.03 1.06 1.18 1.27 1.34 1.42 1.55 1.59 1.49 1.34 1.23 1.18 1.08 1.10 1.25 1.29 1.27 1.19 1.19 1.22 1.10 0.94 0.85 0.81 0.82 0.88 0.92 0.88 0.79 0.71 0.64 0.65 0.70 0.77 0.82 0.85
0.65 0.69 0.77 0.85 1.00 1.09 1.12 1.22 1.38 1.41 1.49 1.39 1.34 1.28 1.13 1.06 1.23 1.26 1.31 1.48 1.39 1.45 1.57 1.37 1.10 0.93 0.84 0.89 0.94 0.92 0.84 0.77 0.66 0.61 0.67 0.74 0.73 0.78
0.55 0.57 0.61 0.63 0.73 0.85 0.96 1.16 1.33 1.45 1.50 1.43 1.43 1.39 1.31 1.22 1.29 1.38 1.45 1.56 1.59 1.42 1.44 1.40 1.33 1.21 1.03 0.92 0.97 1.02 0.99 0.91 0.84 0.76 0.72 0.72 0.72 0.71
0.49 0.55 0.58 0.56 0.57 0.62 0.62 0.80 1.04 1.28 1.37 1.43 1.46 1.48 1.43 1.39 1.34 1.47 1.54 1.66 1.76 1.74 1.60 1.43 1.38 1.23 1.10 1.03 1.00 1.03 1.08 1.06 1.01 0.90 0.83 0.82 0.79 0.77
0.53 0.58 0.57 0.53 0.57 0.57 0.55 0.57 0.68 0.85 1.03 1.16 1.25 1.30 1.36 1.47 1.58 1.59 1.56 1.63 1.68 1.70 1.58 1.58 1.52 1.40 1.23 1.06 1.06 1.08 1.11 1.13 1.09 1.02 0.92 0.83 0.81 0.83
0.50 0.65 0.72 0.65 0.64 0.67 0.69 0.63 0.57 0.57 0.72 0.92 1.04 1.08 1.16 1.27 1.52 1.57 1.57 1.60 1.52 1.56 1.43 1.47 1.43 1.31 1.23 1.18 1.19 1.12 1.13 1.09 1.09 1.03 1.00 0.94 0.87 0.88
0.46 0.60 0.85 0.88 0.77 0.72 0.77 0.87 0.79 0.63 0.62 0.67 0.83 0.96 1.01 1.17 1.51 1.73 1.67 1.46 1.41 1.48 1.39 1.40 1.34 1.22 1.15 1.14 1.18 1.09 1.08 1.04 1.00 1.01 0.99 0.96 0.92 0.92
0.39 0.52 0.69 0.84 0.77 0.72 0.72 0.80 0.84 0.73 0.67 0.69 0.66 0.74 0.88 1.05 1.31 1.58 1.69 1.62 1.46 1.41 1.29 1.22 1.24 1.23 1.25 1.21 1.15 1.14 1.07 1.07 1.06 1.05 1.07 1.05 1.02 1.07
0.26 0.42 0.57 0.57 0.53 0.60 0.72 0.82 0.91 0.75 0.66 0.75 0.74 0.77 0.79 0.98 1.31 1.52 1.65 1.62 1.50 1.45 1.35 1.26 1.26 1.27 1.45 1.40 1.23 1.17 1.11 1.13 1.14 1.13 1.11 1.14 1.20 1.17
0.20 0.34 0.42 0.38 0.38 0.47 0.59 0.71 0.84 0.70 0.72 0.87 0.91 0.89 0.96 1.01 1.13 1.28 1.48 1.59 1.50 1.33 1.26 1.37 1.44 1.36 1.34 1.35 1.32 1.24 1.16 1.09 1.08 1.10 1.11 1.12 1.17 1.15
0.22 0.28 0.31 0.28 0.30 0.34 0.39 0.50 0.61 0.69 0.78 0.91 0.98 0.95 0.91 0.97 1.03 1.07 1.18 1.29 1.29 1.24 1.14 1.10 1.20 1.19 1.14 1.05 1.05 1.12 1.14 1.10 1.07 1.07 1.09 1.20 1.18 1.19
0.20 0.24 0.26 0.27 0.31 0.32 0.33 0.40 0.55 0.74 0.91 0.92 0.85 0.82 0.86 0.90 0.92 1.03 1.11 1.15 1.18 1.18 1.08 0.93 0.94 1.00 1.00 0.95 0.87 0.89 0.99 1.05 1.01 0.98 0.98 1.03 1.05 1.09
0.21 0.22 0.22 0.28 0.31 0.30 0.35 0.47 0.63 0.83 0.91 0.82 0.77 0.68 0.70 0.83 0.90 0.92 0.95 0.98 1.03 1.08 1.01 0.94 0.90 0.89 0.91 0.88 0.84 0.81 0.81 0.86 0.92 0.94 0.94 0.92 0.92 0.94
0.20 0.26 0.30 0.37 0.42 0.48 0.59 0.68 0.69 0.73 0.78 0.70 0.74 0.69 0.64 0.72 0.76 0.77 0.79 0.75 0.76 0.77 0.80 0.81 0.84 0.82 0.80 0.82 0.84 0.80 0.80 0.76 0.76 0.85 0.93 0.92 0.87 0.87
0.24 0.32 0.40 0.48 0.54 0.62 0.68 0.69 0.68 0.69 0.72 0.68 0.67 0.66 0.60 0.60 0.62 0.64 0.68 0.70 0.74 0.71 0.65 0.62 0.64 0.70 0.75 0.80 0.80 0.75 0.77 0.79 0.80 0.82 0.83 0.82 0.77 0.76
0.22 0.32 0.52 0.57 0.56 0.61 0.65 0.64 0.55 0.49 0.50 0.52 0.51 0.49 0.47 0.48 0.52 0.54 0.56 0.62 0.64 0.61 0.61 0.62 0.61 0.64 0.66 0.61 0.58 0.57 0.67 0.71 0.74 0.77 0.79 0.77 0.72 0.69
0.16 0.23 0.37 0.42 0.45 0.50 0.51 0.48 0.41 0.34 0.34 0.35 0.35 0.36 0.37 0.39 0.41 0.44 0.45 0.45 0.51 0.52 0.52 0.53 0.54 0.56 0.60 0.60 0.55 0.48 0.49 0.58 0.61 0.65 0.67 0.70 0.72 0.83
0.18 0.23 0.27 0.31 0.31 0.31 0.31 0.32 0.31 0.32 0.31 0.31 0.32 0.34 0.35 0.36 0.35 0.35 0.39 0.42 0.43 0.43 0.44 0.45 0.44 0.52 0.57 0.63 0.60 0.47 0.41 0.49 0.54 0.55 0.61 0.70 0.70 0.65
0.18 0.19 0.20 0.21 0.21 0.22 0.24 0.27 0.28 0.32 0.33 0.33 0.32 0.33 0.36 0.37 0.36 0.35 0.35 0.36 0.38 0.41 0.41 0.42 0.45 0.49 0.54 0.60 0.57 0.49 0.45 0.47 0.52 0.62 0.63 0.63 0.62 0.58
0.20 0.19 0.19 0.19 0.21 0.23 0.27 0.28 0.29 0.32 0.34 0.34 0.35 0.37 0.38 0.40 0.40 0.39 0.38 0.38 0.39 0.42 0.45 0.47 0.48 0.51 0.53 0.55 0.55 0.53 0.51 0.51 0.53 0.55 0.54 0.57 0.56 0.53